Location: ??????????
(54.8537°N, 38.8755°E)
Time: 15:22:27
(UTC+00:00)

Vanguard 2 Rocket - All Passes

Search period start: 13 September 2024 00:00
Search period end: 23 September 2024 00:00
Orbit: 553 x 3300 km, 32.9° (Epoch: 13 September)

Date Brightness Start Highest point End Pass type
(mag) Time Alt. Az. Time Alt. Az. Time Alt. Az.
13 Sep - 00:32:26 10° SW 00:43:50 31° SSE 00:59:00 10° ESE visible
13 Sep - 02:44:22 10° WSW 02:57:51 33° S 03:14:00 10° SE daylight
13 Sep - 04:59:28 10° WSW 05:11:53 22° SSW 05:24:52 10° S daylight
13 Sep - 21:26:15 10° SE 21:28:35 11° SE 21:31:06 10° ESE visible
13 Sep - 23:30:23 10° SSW 23:40:02 26° SSE 23:53:11 10° ESE visible
14 Sep - 01:41:05 10° SW 01:53:27 33° S 02:09:26 10° SE visible
14 Sep - 03:54:39 10° WSW 04:07:38 27° SSW 04:22:13 10° SSE daylight
14 Sep - 06:14:37 10° WSW 06:20:51 12° SW 06:27:09 10° SSW daylight
14 Sep - 22:29:04 10° S 22:36:41 20° SSE 22:46:48 10° ESE visible
15 Sep - 00:38:19 10° SW 00:49:17 31° S 01:04:16 10° ESE visible
15 Sep - 02:50:38 10° WSW 03:03:15 29° SSW 03:18:36 10° SE daylight
15 Sep - 05:06:49 10° WSW 05:16:59 18° SW 05:27:46 10° S daylight
15 Sep - 21:29:10 10° SSE 21:33:45 13° SE 21:39:17 10° ESE visible
15 Sep - 23:36:05 10° SSW 23:45:28 27° SSE 23:58:38 10° ESE visible
16 Sep - 01:47:14 10° WSW 01:58:56 31° S 02:14:14 10° SE visible
16 Sep - 04:01:26 10° WSW 04:12:52 22° SSW 04:25:52 10° SSE daylight
16 Sep - 22:34:26 10° SSW 22:42:04 22° SSE 22:52:33 10° ESE visible
17 Sep - 00:44:23 10° SW 00:54:49 30° S 01:09:15 10° SE visible
17 Sep - 02:57:09 10° WSW 03:08:38 25° SSW 03:22:43 10° SSE daylight
17 Sep - 05:15:45 10° WSW 05:22:03 13° SW 05:28:40 10° SSW daylight
17 Sep - 21:33:45 10° S 21:39:04 16° SE 21:45:51 10° ESE visible
17 Sep - 23:42:00 10° SW 23:51:00 27° SSE 00:03:49 10° ESE visible
18 Sep - 01:53:36 10° WSW 02:04:25 27° S 02:18:39 10° SE visible
18 Sep - 04:08:52 10° WSW 04:18:06 17° SSW 04:28:30 10° S daylight
18 Sep - 22:40:07 10° SSW 22:47:33 23° SSE 22:58:00 10° ESE visible
19 Sep - 00:50:36 10° SW 01:00:22 28° S 01:13:55 10° SE visible
19 Sep - 03:04:01 10° WSW 03:14:01 21° SSW 03:26:06 10° SSE daylight
19 Sep - 21:38:57 10° S 21:44:29 17° SSE 21:51:47 10° ESE visible
19 Sep - 23:48:05 10° SW 23:56:34 26° S 00:08:43 10° SE visible
20 Sep - 02:00:12 10° WSW 02:09:54 23° SSW 02:22:33 10° SSE visible
20 Sep - 04:18:05 10° SW 04:23:18 12° SW 04:28:55 10° SSW daylight
20 Sep - 20:39:43 10° SSE 20:41:46 11° SE 20:44:05 10° SE visible
20 Sep - 22:46:02 10° SSW 22:53:07 23° SSE 23:03:11 10° ESE visible
21 Sep - 00:57:01 10° SW 01:05:57 25° S 01:18:11 10° SE visible
21 Sep - 03:11:39 10° WSW 03:19:22 16° SSW 03:28:25 10° S daylight
21 Sep - 21:44:33 10° SSW 21:50:00 18° SSE 21:57:21 10° ESE visible
21 Sep - 23:54:21 10° SW 00:02:12 24° S 00:13:18 10° SE visible
22 Sep - 02:07:13 10° WSW 02:15:25 19° SSW 02:25:42 10° SSE visible
22 Sep - 20:44:13 10° S 20:47:14 12° SSE 20:50:47 10° SE visible
22 Sep - 22:52:09 10° SW 22:58:45 22° S 23:08:04 10° SE visible
